#timestamp,LO_Frequency,Hit,StdDev 
1618868755.9,286047060.3,P
1618868775.7,286047058.6,P
1618868795.6,286047060.0,P
1618868815.4,286047060.0,Y
1618868835.2,286046998.2,P
1618868855.1,286047002.3,N
1618868856.0,286047002.3,N
1618868875.8,286047002.8,N
1618868895.7,286047000.1,N
1618868915.5,286047002.2,N
1618868935.3,286047000.4,N
1618868955.2,286047000.8,N
1618868975.9,286047001.0,N
1618868995.7,286046998.3,N
1618869015.6,286047000.2,N
1618869035.4,286047000.2,N
1618869055.2,286047000.0,N
1618869075.1,286046999.9,N
1618869076.0,286046999.9,N
1618869095.8,286047004.4,N
1618869115.7,286047003.2,N
1618869135.5,286047005.5,N
1618869155.3,286047005.9,N
1618869175.2,286047005.6,N
1618869195.0,286047002.9,N
1618869195.9,286047002.9,N
1618869215.8,286047003.7,N
1618869235.6,286047003.1,N
1618869255.4,286047003.2,N
1618869275.3,286047005.8,N
1618869295.1,286047007.6,N
1618869315.8,286047006.8,N
1618869335.7,286047006.2,N
1618869355.5,286047006.9,N
1618869375.4,286047006.1,N
1618869395.2,286047008.6,Y
1618869415.0,286047003.6,P
1618869415.9,286047003.6,P
1618869435.8,286047004.4,P
1618869455.6,286047003.8,Y
1618869475.5,286046998.1,P
1618869495.3,286047001.2,N
1618869515.1,286046998.1,N
1618869535.9,286046998.5,N
1618869555.7,286047002.3,N
1618869575.5,286046999.7,N
1618869595.4,286047002.7,N
